Observer details:
106 Crni Vrh.  Observer J. Skvarc.  0.6-m f/3.3 Deltagraph + CCD.
113 Volkssternwarte Drebach, Schoenbrunn.  Observer A. Knoefel.  0.5-m f/5
    reflector + CCD.
157 Frasso Sabino.  Observers R. Haver, R. Gorelli.  Measurer R. Haver.
    0.37-m f/6.85 Cassegrain + CCD.
204 Schiaparelli Observatory.  Observer L. Buzzi.  0.60-m f/4.64 reflector
    + CCD.
461 University of Szeged, Piszkesteto Stn. (Konkoly).  Observer K. Sarneczky.
    0.60-m Schmidt + CCD.
510 Siegen.  Observers M. Jung, H. Bill.  Measurer H. Bill.  0.43-m f/4.5
    reflector + CCD.
595 Farra d'Isonzo.  Observer E. Pettarin.  0.40-m f/4.5 reflector + CCD.
703 Catalina Sky Survey.  Observer R. A. Kowalski.  Measurers J. D. Ahern,
    E. C. Beshore, A. Boattini, G. J. Garradd, A. R. Gibbs, P. Tricarico,
    A. D. Grauer, R. E. Hill, R. A. Kowalski, S. M. Larson, R. H. McNaught.
    0.68-m Schmidt + CCD.
704 Lincoln Laboratory ETS, New Mexico.  Observers M. Blythe, G. Spitz,
    R. Brungard, J. Paige, P. Festler, T. McVey, A. Valdivia, C. Gall.  1.0-m
    f/2.15 reflector + CCD.
A17 Guidestar Observatory, Weinheim.  Observers M. Emmerich, S. Melchert.
    0.36-m f/6 Schmidt-Cassegrain + CCD.
A71 Stixendorf.  Observers M. Jaeger, E. Prosperi, S. Prosperi, W. Vollmann.
    Measurer W. Vollmann.  0.25-m f/3.8 reflector + CCD.
B86 Sternwarte Hagen.  Observer M. Klein.  0.50-m f/3.0 Deltagraph + CCD.
G96 Mt. Lemmon Survey.  Observer A. R. Gibbs.  Measurers J. D. Ahern,
    E. C. Beshore, A. Boattini, G. J. Garradd, A. R. Gibbs, A. D. Grauer,
    R. E. Hill, R. A. Kowalski, S. M. Larson, R. H. McNaught.  1.5-m reflector
    + CCD.
H01 Magdalena Ridge Observatory, Socorro.  Observers W. H. Ryan, E. V. Ryan.
    Measurer W. H. Ryan.  2.4-m f/8.9 reflector + CCD.
H06 RAS Observatory, Mayhill.  Observers E. Guido, G. Sostero, N. Howes,
    H. Sato.  0.25-m f/3.4 reflector + CCD, 0.51-m f/4.5 reflector + CCD.
H10 Tzec Maun Observatory, Mayhill.  Observers S. Baroni, L. Buzzi, P. Concari,
    S. Foglia, G. Galli, M. Tombelli.  0.18-m f/2.8 Newtonian reflector + CCD.
H17 Angel Peaks Observatory.  Observer J. Hall.  0.35-m f/10
    Schmidt-Cassegrain + CCD.
H21 Astronomical Research Observatory, Westfield.  Observer R. Holmes.
    Measurers T. Vorobjov, L. Buzzi, S. Foglia.  0.61-m f/4.0 astrograph + CCD.
H36 Sandlot Observatory, Scranton.  Observer G. Hug.  0.56-m reflector + CCD.
J95 Great Shefford.  Observer P. Birtwhistle.  0.40-m f/6.0 Schmidt-Cassegrain
    + CCD.

Orbital elements:
    C/2011 S2
T 2011 Oct. 23.52447 TT                                 MPC
q   1.1325858            (2000.0)            P               Q
                   Peri.  188.82850     -0.45363335     -0.84533505
                   Node   288.57338     +0.83474775     -0.29215102
e   1.0            Incl.   17.31857     +0.31211052     -0.44727670
From 91 observations 2011 Sept. 30-Oct. 2.

Ephemeris:
    C/2011 S2
Date    TT    R. A. (2000) Decl.     Delta      r     Elong.  Phase   m1    m2
2011 09 02    07 06 44.9 +32 10 39   1.6970  1.3964    55.3    36.5  18.1
...
2011 09 17    08 14 03.4 +27 01 58   1.5672  1.2744    54.2    39.8  17.5
...
2011 09 25    08 48 58.8 +23 15 04   1.5199  1.2218    53.3    41.1  17.3
...
2011 10 01    09 14 18.2 +20 01 13   1.4947  1.1892    52.5    41.9  17.1
2011 10 02    09 18 26.3 +19 27 14   1.4914  1.1845    52.4    42.0  17.1
2011 10 03    09 22 32.9 +18 52 50   1.4882  1.1799    52.2    42.1  17.1
...
2011 10 09    09 46 39.6 +15 18 47   1.4745  1.1566    51.5    42.5  17.0
...
2011 10 17    10 17 18.7 +10 19 06   1.4687  1.1375    50.6    42.7  16.9
...
2011 11 01    11 10 16.1 +00 48 55   1.4901  1.1408    49.9    41.8  16.9

     The orbit of this object is essentially indeterminate at the present time.
It is possible that this is a short-period comet.  Among the wide range of
possible short-period orbits are orbits that appear similar to P/2006 T1
(Levy).  Initial attempts to link the two apparitions have not been
successful.  Further observations are encouraged.

Gareth V. Williams           (C) Copyright 2011 MPC           M.P.E.C. 2011-T12

Read MPEC 2011-T11 Read MPEC 2011-T13


MPEC number:

Enter an MPEC number in one of the following forms:

  • 1997-B01 (the full form)
  • J97B01 (the packed version of the full form)
  • B01 (the abbreviated form)

